Location: Kitt Peak
(31.9633°N, 111.6000°W)
Time: 12:09:18
(UTC-07:00)

Amateur Radio Satellites - All Passes

Search period start: 01 September 2014 11:39
Search period end: 02 September 2014 11:39
Location: Kitt Peak, 31.9633°N, 111.6000°W

Satellite Date Start Highest point End Downlink Frequencies (MHz)
Time Altitude Azimuth
MaSat-1 01 Sep 11:45:58 11:50:19 37° 105° (ESE) 11:54:59 437.345 MHz
SO-50 01 Sep 11:47:33 11:52:02 38° 57° (ENE) 11:56:33 436.795 FM
Oscar 16 01 Sep 12:04:29 12:07:18 15° 66° (ENE) 12:10:06 437.025 USB, Beacon 2401.1428
PANSAT 01 Sep 12:06:25 12:10:10 50° 178° (S) 12:13:55 not established
FUNcube-1 01 Sep 12:06:50 12:08:46 13° 293° (WNW) 12:10:43 145.950 - 145.970 MHz USB
AO-27 01 Sep 12:36:13 12:38:15 12° 64° (ENE) 12:40:17 436.795 MHz FM
JAS-1B 01 Sep 12:45:20 12:53:17 30° 66° (ENE) 13:00:37 435.800 - 435.900 CW/SSB
Oscar 19 01 Sep 13:05:48 13:10:53 63° 75° (ENE) 13:16:00 437.125 CW, 437.150 USB
Gurwin Techsat 1B 01 Sep 13:14:33 13:16:52 13° 65° (ENE) 13:19:10 435.225 FM
AO-Echo 01 Sep 13:18:51 13:23:28 37° 73° (ENE) 13:27:59 ?
MaSat-1 01 Sep 13:23:41 13:27:26 22° 302° (WNW) 13:31:21 437.345 MHz
SO-50 01 Sep 13:28:52 13:32:19 20° 251° (WSW) 13:35:46 436.795 FM
UOSAT-12 01 Sep 13:37:01 13:41:23 37° 57° (ENE) 13:45:40 437.025 FM, 437.400 FM
Oscar 16 01 Sep 13:41:07 13:46:08 53° 260° (W) 13:51:12 437.025 USB, Beacon 2401.1428
ITAMSAT 1 01 Sep 13:42:30 13:47:35 61° 74° (ENE) 13:52:41 435.822 SSB
PANSAT 01 Sep 13:46:30 13:50:08 39° 190° (S) 13:53:45 not established
Uribyol 2 01 Sep 13:51:54 13:57:02 82° 76° (ENE) 14:02:13 436.500 FM
RS-15 01 Sep 14:01:21 14:07:25 16° 32° (NNE) 14:13:32 29.354 - 29.394 USB, Beacon 29.352 USB
TMSAT-1 01 Sep 14:02:21 14:06:49 29° 70° (ENE) 14:11:18 436.925 FM
AO-27 01 Sep 14:12:02 14:17:09 65° 258° (WSW) 14:22:18 436.795 MHz FM
JAS-1B 01 Sep 14:33:27 14:43:12 62° 258° (WSW) 14:52:09 435.800 - 435.900 CW/SSB
AO-7 01 Sep 14:33:39 14:39:49 24° 60° (ENE) 14:45:58 29.400 - 29.500 MHz
PCSat 01 Sep 14:45:20 14:48:33 16° 104° (ESE) 14:51:47 145.825 MHz
Oscar 19 01 Sep 14:48:55 14:50:33 11° 268° (W) 14:52:11 437.125 CW, 437.150 USB
Gurwin Techsat 1B 01 Sep 14:50:58 14:56:13 64° 259° (WSW) 15:01:29 435.225 FM
AO-Echo 01 Sep 14:58:47 15:02:16 19° 264° (W) 15:05:42 ?
UOSAT-12 01 Sep 15:17:59 15:21:13 19° 251° (WSW) 15:24:24 437.025 FM, 437.400 FM
ITAMSAT 1 01 Sep 15:25:34 15:27:23 12° 267° (W) 15:29:12 435.822 SSB
PANSAT 01 Sep 15:27:24 15:29:54 16° 202° (SSW) 15:32:23 not established
ISS 01 Sep 15:39:18 15:41:11 14° 33° (NNE) 15:43:05 145.800 FM
TMSAT-1 01 Sep 15:42:11 15:46:37 27° 263° (W) 15:51:05 436.925 FM
OPAL 01 Sep 15:46:36 15:49:04 13° 95° (E) 15:51:30 ?
Uosat F 01 Sep 15:49:10 15:54:05 61° 74° (ENE) 15:59:01 435.120 FM
Sapphire 01 Sep 15:56:48 16:02:10 78° 113° (ESE) 16:07:35 437.095 MHz 1200 baud AX-25 AFSK
RS-15 01 Sep 16:11:39 16:22:39 60° 58° (ENE) 16:34:04 29.354 - 29.394 USB, Beacon 29.352 USB
JAS-2 01 Sep 16:22:46 16:25:48 14° 67° (ENE) 16:28:41 435.800 - 435.900 CW/SSB, 435.910 FM
AO-7 01 Sep 16:23:35 16:31:51 67° 255° (WSW) 16:40:09 29.400 - 29.500 MHz
PCSat 01 Sep 16:26:14 16:31:28 51° 298° (WNW) 16:36:45 145.825 MHz
Hamsat 01 Sep 17:12:20 17:16:17 36° 73° (ENE) 17:20:15 145.90 MHz
ISS 01 Sep 17:14:53 17:18:08 52° 228° (SW) 17:21:22 145.800 FM
OPAL 01 Sep 17:23:05 17:28:12 57° 288° (WNW) 17:33:15 ?
Uosat F 01 Sep 17:31:41 17:33:10 11° 267° (W) 17:34:39 435.120 FM
Sapphire 01 Sep 17:43:48 17:46:10 13° 310° (NW) 17:48:32 437.095 MHz 1200 baud AX-25 AFSK
JAS-2 01 Sep 18:04:12 18:10:29 65° 258° (WSW) 18:16:04 435.800 - 435.900 CW/SSB, 435.910 FM
SO-67 01 Sep 18:14:06 18:16:40 20° 73° (ENE) 18:19:15 435.3500 MHz FM
RS-15 01 Sep 18:24:55 18:34:20 33° 255° (WSW) 18:44:09 29.354 - 29.394 USB, Beacon 29.352 USB
Hamsat 01 Sep 18:49:57 18:52:19 14° 267° (W) 18:54:42 145.90 MHz
STRAND 1 01 Sep 19:10:14 19:15:21 77° 103° (ESE) 19:20:28 ?
HO-68 01 Sep 19:36:20 19:42:00 26° 64° (ENE) 19:47:39 435.675 MHz FM
SO-67 01 Sep 19:47:27 19:49:36 16° 265° (W) 19:51:47 435.3500 MHz FM
UKube-1 01 Sep 20:44:34 20:48:35 38° 73° (ENE) 20:52:37 145.840 MHz, 145.915 MHz
Oscar 11 01 Sep 20:48:47 20:52:21 26° 71° (ENE) 20:55:56 145.825 FM, Beacon 2401.500 USB
Saudisat 1A 01 Sep 21:17:43 21:22:03 65° 116° (ESE) 21:26:26 436.775 MHz
FUNcube-1 01 Sep 21:21:09 21:24:18 21° 70° (ENE) 21:27:30 145.950 - 145.970 MHz USB
HO-68 01 Sep 21:22:25 21:29:16 50° 259° (W) 21:36:09 435.675 MHz FM
MaSat-1 01 Sep 21:45:33 21:49:14 26° 60° (ENE) 21:52:28 437.345 MHz
AO-40 01 Sep 22:01:36 02:06:07 36° 126° (SE) 03:33:06 Beacon 2401.320
KITSAT 1 01 Sep 22:15:07 22:23:03 63° 112° (ESE) 22:31:00 435.175 FM
UKube-1 01 Sep 22:22:42 22:24:53 14° 266° (W) 22:27:04 145.840 MHz, 145.915 MHz
Oscar 11 01 Sep 22:25:11 22:28:27 21° 264° (W) 22:31:44 145.825 FM, Beacon 2401.500 USB
FUNcube-1 01 Sep 22:57:12 23:00:33 23° 264° (W) 23:03:56 145.950 - 145.970 MHz USB
Saudisat 1A 01 Sep 23:00:31 23:02:02 12° 311° (NW) 23:03:33 436.775 MHz
MaSat-1 01 Sep 23:23:13 23:25:51 17° 260° (W) 23:28:15 437.345 MHz
Oscar 10/S400 02 Sep 00:04:24 00:55:46 68° 206° (SSW) 10:42:02 145.825 - 145.975 CW/USB, Beacon 145.810 USB
KITSAT 1 02 Sep 00:12:24 00:18:54 26° 309° (NW) 00:25:27 435.175 FM
Sapphire 02 Sep 00:50:28 00:54:44 23° 56° (NE) 00:58:58 437.095 MHz 1200 baud AX-25 AFSK
PCSat 02 Sep 01:19:01 01:24:12 44° 61° (ENE) 01:29:21 145.825 MHz
Oscar 19 02 Sep 01:22:46 01:27:26 33° 98° (E) 01:32:03 437.125 CW, 437.150 USB
AO-Echo 02 Sep 01:31:56 01:34:55 17° 95° (E) 01:37:55 ?
Oscar 16 02 Sep 01:57:39 02:02:52 82° 103° (ESE) 02:08:03 437.025 USB, Beacon 2401.1428
SO-50 02 Sep 01:58:08 02:02:10 36° 113° (ESE) 02:06:17 436.795 FM
ITAMSAT 1 02 Sep 02:00:41 02:05:19 33° 98° (E) 02:09:57 435.822 SSB
Uribyol 2 02 Sep 02:09:45 02:14:43 44° 100° (E) 02:19:39 436.500 FM
TMSAT-1 02 Sep 02:23:52 02:27:12 17° 94° (E) 02:30:32 436.925 FM
JAS-1B 02 Sep 02:27:14 02:33:23 53° 100° (E) 02:38:56 435.800 - 435.900 CW/SSB
AO-27 02 Sep 02:29:59 02:35:09 69° 102° (ESE) 02:40:19 436.795 MHz FM
Sapphire 02 Sep 02:33:12 02:38:14 40° 251° (WSW) 02:43:14 437.095 MHz 1200 baud AX-25 AFSK
OPAL 02 Sep 02:57:06 02:59:49 15° 63° (ENE) 03:02:33 ?
Oscar 19 02 Sep 03:02:30 03:06:31 23° 291° (WNW) 03:10:32 437.125 CW, 437.150 USB
PCSat 02 Sep 03:03:30 03:07:12 19° 255° (WSW) 03:10:54 145.825 MHz
AO-Echo 02 Sep 03:09:27 03:13:46 37° 287° (WNW) 03:18:07 ?
Gurwin Techsat 1B 02 Sep 03:12:08 03:17:27 78° 102° (ESE) 03:22:45 435.225 FM
SO-50 02 Sep 03:39:36 03:42:48 19° 308° (NW) 03:46:04 436.795 FM
ITAMSAT 1 02 Sep 03:40:32 03:44:35 24° 291° (WNW) 03:48:39 435.822 SSB
UOSAT-12 02 Sep 03:43:38 03:47:43 33° 112° (ESE) 03:51:54 437.025 FM, 437.400 FM
Uribyol 2 02 Sep 03:50:21 03:53:48 18° 293° (WNW) 03:57:14 436.500 FM
TMSAT-1 02 Sep 04:02:14 04:07:17 46° 287° (WNW) 04:12:18 436.925 FM
Uosat F 02 Sep 04:02:18 04:06:34 28° 97° (E) 04:10:48 435.120 FM
AO-27 02 Sep 04:12:18 04:14:01 12° 296° (WNW) 04:15:44 436.795 MHz FM
JAS-1B 02 Sep 04:19:30 04:23:21 17° 299° (WNW) 04:26:59 435.800 - 435.900 CW/SSB
AO-7 02 Sep 04:30:43 04:38:52 59° 103° (ESE) 04:46:58 29.400 - 29.500 MHz
OPAL 02 Sep 04:33:15 04:38:10 55° 257° (WSW) 04:43:11 ?
Gurwin Techsat 1B 02 Sep 04:55:45 04:56:41 10° 297° (WNW) 04:57:38 435.225 FM
JAS-2 02 Sep 05:18:58 05:22:37 18° 96° (E) 05:26:29 435.800 - 435.900 CW/SSB, 435.910 FM
UOSAT-12 02 Sep 05:24:21 05:27:54 22° 307° (NW) 05:31:31 437.025 FM, 437.400 FM
Uosat F 02 Sep 05:41:06 05:45:12 26° 291° (WNW) 05:49:17 435.120 FM
Saudisat 1A 02 Sep 05:50:27 05:52:53 14° 50° (NE) 05:55:19 436.775 MHz
KITSAT 1 02 Sep 06:16:07 06:20:01 14° 42° (NE) 06:23:54 435.175 FM
STRAND 1 02 Sep 06:21:19 06:26:22 67° 75° (ENE) 06:31:25 ?
AO-7 02 Sep 06:24:34 06:31:03 27° 299° (WNW) 06:37:33 29.400 - 29.500 MHz
RS-15 02 Sep 06:28:33 06:39:31 63° 112° (ESE) 06:50:12 29.354 - 29.394 USB, Beacon 29.352 USB
Hamsat 02 Sep 06:38:29 06:42:43 54° 285° (WNW) 06:46:53 145.90 MHz
JAS-2 02 Sep 07:02:41 07:07:47 45° 287° (WNW) 07:13:22 435.800 - 435.900 CW/SSB, 435.910 FM
SO-67 02 Sep 07:14:32 07:17:53 46° 99° (E) 07:21:12 435.3500 MHz FM
Saudisat 1A 02 Sep 07:28:28 07:32:43 49° 246° (WSW) 07:36:57 436.775 MHz
STRAND 1 02 Sep 08:05:09 08:05:54 10° 268° (W) 08:06:39 ?
KITSAT 1 02 Sep 08:08:50 08:16:54 70° 62° (ENE) 08:24:54 435.175 FM
ISS 02 Sep 08:17:13 08:20:26 50° 132° (SE) 08:23:40 145.800 FM
PANSAT 02 Sep 08:24:11 08:25:29 11° 155° (SSE) 08:26:46 not established
RS-15 02 Sep 08:42:47 08:52:23 33° 312° (NW) 09:01:56 29.354 - 29.394 USB, Beacon 29.352 USB
HO-68 02 Sep 08:55:20 09:02:03 42° 100° (E) 09:08:44 435.675 MHz FM
ISS 02 Sep 09:55:26 09:57:22 14° 327° (NNW) 09:59:18 145.800 FM
PANSAT 02 Sep 10:01:42 10:05:10 31° 166° (SSE) 10:08:38 not established
KITSAT 1 02 Sep 10:06:06 10:11:28 20° 257° (WSW) 10:16:50 435.175 FM
UKube-1 02 Sep 10:13:25 10:17:39 54° 285° (WNW) 10:21:53 145.840 MHz, 145.915 MHz
Oscar 11 02 Sep 10:16:26 10:20:48 79° 283° (WNW) 10:25:08 145.825 FM, Beacon 2401.500 USB
SO-50 02 Sep 10:36:10 10:37:47 12° 48° (NE) 10:39:25 436.795 FM
HO-68 02 Sep 10:43:25 10:49:27 31° 294° (WNW) 10:55:30 435.675 MHz FM
FUNcube-1 02 Sep 10:49:49 10:54:25 88° 282° (WNW) 10:59:02 145.950 - 145.970 MHz USB
MaSat-1 02 Sep 11:27:27 11:31:42 34° 105° (ESE) 11:36:16 437.345 MHz
